Gerald R. Ford International Airport Grand Rapids US
ICAO: KGRR
IATA: GRR
Category: Medium
Scheduled Services: Yes

Elevation: 794 ft
TransAlt. 18000 ft.

Airport Communications:
GRAND RAPIDS APP/DEP:124.6
ATIS:127.1
CLNC DEL:119.3
CTAF:135.65
GND:121.8
LANSING RDO:115.95
GRAND RAPIDS TWR:135.65
UNICOM:122.95

KGRR Zoom In..

Runways:

(A) RW 08L length 5000 ft width 100 ft
---- / hdg 85

(B) RW 08R length 10000 ft width 150 ft
ILS 108.30 / hdg 85

(C) RW 17 length 8501 ft width 150 ft
---- / hdg 175

(D) RW 26L length 10000 ft width 150 ft
ILS 109.70 / hdg 265

(E) RW 26R length 5000 ft width 100 ft
---- / hdg 265

(F) RW 35 length 8501 ft width 150 ft
ILS 111.90 / hdg 355

Location; KGRR
Day. 25 / Time. 10.32 Zulu
* Altimeter: 30.00
* Temperature: 07° c. 44.6°f.
* Wind from: 360° Speed 08 kn.
Dewpoint: 02° c.
Visibility: 10 Statute Miles.
Clouds: Scattered 2500 ft.
Clouds: Broken 3800 ft.

KGRR 251032Z 36008KT 10SM SCT025 BKN038 07/02 A3000 RMK AO2 T00720017


Wind From 360°
Speed 08 kn.

  YouTube Music Video
 
jpsmedia.com for Web Design  worldairports.se 2018   terms of use